This is the latest recevied weather packets stored in our database for station/object KB0Y. If no packets are shown the sender has not sent any weather packets the latest 10 day(s).
| Time | Temp. | Humidity | Pressure | Rain* | Wind** | Luminosity | Snow |
|---|---|---|---|---|---|---|---|
| 1777830492 | 22.22° C | 42% | 1023.1 hPa | 0 mm | - | 524 W/m² | - |
| 1777830191 | 22.22° C | 43% | 1023.4 hPa | 0 mm | - | 543 W/m² | - |
| 1777829886 | 22.22° C | 44% | 1023.4 hPa | 0 mm | - | 560 W/m² | - |
| 1777829582 | 22.22° C | 43% | 1023.4 hPa | 0 mm | - | 561 W/m² | - |
| 1777829279 | 22.22° C | 41% | 1023.4 hPa | 0 mm | - | 516 W/m² | - |
| 1777828976 | 21.67° C | 45% | 1023.8 hPa | 0 mm | - | 532 W/m² | - |
| 1777828672 | 21.67° C | 43% | 1023.8 hPa | 0 mm | - | 527 W/m² | - |
| 1777828369 | 21.67° C | 43% | 1023.8 hPa | 0 mm | - | 523 W/m² | - |
| 1777828067 | 21.67° C | 46% | 1023.8 hPa | 0 mm | - | 503 W/m² | - |
| 1777827763 | 21.67° C | 44% | 1023.8 hPa | 0 mm | - | 515 W/m² | - |
| 1777827460 | 21.67° C | 42% | 1023.8 hPa | 0 mm | - | 520 W/m² | - |
| 1777827158 | 21.67° C | 44% | 1024.1 hPa | 0 mm | - | 532 W/m² | - |
| 1777826853 | 21.67° C | 44% | 1024.5 hPa | 0 mm | - | 532 W/m² | - |
| 1777826552 | 21.67° C | 46% | 1024.1 hPa | 0 mm | - | 525 W/m² | - |
| 1777826247 | 21.67° C | 45% | 1024.1 hPa | 0 mm | - | 520 W/m² | - |
| 1777825945 | 21.67° C | 43% | 1024.5 hPa | 0 mm | - | 534 W/m² | - |
| 1777825642 | 21.67° C | 45% | 1024.5 hPa | 0 mm | - | 524 W/m² | - |
| 1777825340 | 21.67° C | 44% | 1024.5 hPa | 0 mm | - | 514 W/m² | - |
| 1777825036 | 21.67° C | 44% | 1024.5 hPa | 0 mm | - | 514 W/m² | - |
| 1777824732 | 20.56° C | 47% | 1024.5 hPa | 0 mm | - | 499 W/m² | - |
| 1777824430 | 20.56° C | 47% | 1024.8 hPa | 0 mm | - | 497 W/m² | - |
| 1777824125 | 20.56° C | 45% | 1024.8 hPa | 0 mm | - | 490 W/m² | - |
| 1777823822 | 20.56° C | 47% | 1024.8 hPa | 0 mm | - | 491 W/m² | - |
| 1777823520 | 20.56° C | 46% | 1024.8 hPa | 0 mm | - | 484 W/m² | - |
| 1777823216 | 20.56° C | 47% | 1024.5 hPa | 0 mm | - | 477 W/m² | - |
* Rain latest hour (hover to see other rain measurements)
** Current wind speed in m/s (hover to see current wind gust speed)